Terminal Aerodrome Forecast
Issued by NWS

Home | Current Version | Previous Version | Graphics & Text | Print | Product List | Glossary On
Versions: 1 2 3 4 5 6 7 8 9 10 11 12 13 14 15 16 17 18 19 20 21 22 23 24 25 26
000
FTUS41 KCLE 251745
TAFFDY
TAF
KFDY 251745Z 2518/2618 35008KT P6SM SCT020 OVC040
      TEMPO 2518/2522 3SM -SHRA OVC020
     FM252200 31008KT P6SM VCSH OVC020
     FM260200 28008KT P6SM OVC008
     FM261400 28008KT P6SM OVC015
     FM261700 25008KT P6SM SCT015 BKN120=

USA.gov is the U.S. government's official web portal to all federal, state and local government web resources and services.